KLGA

LaGuardia Airport

Airport
ICAO code
KLGA
Summary
ICAO Region
NAM
ICAO Territory
Location

East Elmhurst, Queens, New York,

Coordinates
40° 46' 38" N , 73° 52' 21" W
KCC
Airport BS
Bird Strike
Airport RE
Engineered Materials Arresting System
Metar
Observation
KLGA 042151Z 22010KT 10SM SCT075 BKN140 BKN250 M06/M22 A3051 RMK AO2 SLP332 T10561217
Station
New York, La Guardia Airport
Date/Time
2023-02-04 22:51:00
Wind direction
220°
Wind speed
10 kts
Lowest cloud amount
scattered clouds
Temperature
-5.6°C
Dew point
-21.7°C
Humidity
26%
Weather condition
n/a

Description

Airport serving the city of New York, NY, USA.

Climatology

Humid “subtropical” climate (Köppen climate classification Cfa) - characterized by hot, humid summers and cool winters. Significant amounts of precipitation occur in all seasons in most areas. Winter rainfall (and sometimes snowfall) is associated with large storms that the westerlies steer from west to east. Most summer rainfall occurs during thunderstorms.

Runways

Designator Length Width Surface Rops
4/22 2134 46 ASP Yes/Yes
13/31 2134 46 ASP Yes/Yes

SKYbrary Partners:

Safety knowledge contributed by: